Location: Beaurecueil
(43.5122°N, 5.5450°E)
Time: 14:02:28
(UTC+00:00)

Cosmos 2082 Rocket - Pass Details

Date: 18 September 2020
Orbit: 834 x 853 km, 71.0° (Epoch: 30 October)

Event Time Altitude Azimuth Distance (km) Brightness Sun altitude
Rises 20:40:49 0° 342° (NNW) 3,391 6.1 -31.0°
Reaches altitude 10° 20:43:36 10° 354° (N) 2,454 5.1 -31.4°
Enters shadow 20:46:38 24° 22° (NNE) 1,668 3.8 -31.9°
